Location: Unspecified
(40.7945°N, 111.1337°W)
Time: 13:17:58
(UTC-06:00)

Explorer 11/Cluster Stage 4 - All Passes

Search period start: 24 June 2019 00:00
Search period end: 04 July 2019 00:00
Orbit: 467 x 1260 km, 28.8° (Epoch: 24 June)

Date Brightness Start Highest point End Pass type
(mag) Time Alt. Az. Time Alt. Az. Time Alt. Az.
24 Jun - 15:20:53 10° SSW 15:22:27 12° S 15:24:04 10° SE daylight
24 Jun - 17:07:46 10° SW 17:10:01 15° S 17:12:27 10° SSE daylight
25 Jun - 15:10:16 10° SSW 15:11:53 12° S 15:13:32 10° SSE daylight
25 Jun - 16:57:35 10° SW 16:59:27 13° S 17:01:24 10° SSE daylight
26 Jun - 14:59:40 10° SSW 15:01:19 13° S 15:02:59 10° SSE daylight
26 Jun - 16:47:33 10° SSW 16:48:52 11° S 16:50:15 10° SSE daylight
27 Jun - 14:49:05 10° SSW 14:50:45 13° S 14:52:26 10° SSE daylight
28 Jun - 12:52:23 10° S 12:52:39 10° S 12:52:56 10° SSE daylight
28 Jun - 14:38:30 10° SSW 14:40:12 13° S 14:41:53 10° SSE daylight
29 Jun - 12:40:36 10° SSW 12:42:04 12° S 12:43:29 10° SSE daylight
29 Jun - 14:27:55 10° SSW 14:29:38 13° S 14:31:19 10° SSE daylight
30 Jun - 12:29:25 10° SSW 12:31:30 13° S 12:33:26 10° SE daylight
30 Jun - 14:17:20 10° SW 14:19:04 13° S 14:20:45 10° SSE daylight
01 Jul - 12:18:22 10° SSW 12:20:55 15° S 12:23:15 10° SE daylight
01 Jul - 14:06:45 10° SW 14:08:29 13° S 14:10:09 10° SSE daylight
02 Jul - 10:20:34 10° S 10:22:33 12° SSE 10:24:26 10° SE daylight
02 Jul - 12:07:23 10° SW 12:10:20 16° S 12:12:59 10° SE daylight
02 Jul - 13:56:10 10° SW 13:57:54 12° SSW 13:59:33 10° SSE daylight
03 Jul - 10:08:56 10° SSW 10:11:55 14° S 10:14:37 10° SE daylight
03 Jul - 11:56:25 10° SW 11:59:44 18° S 12:02:41 10° SE daylight
03 Jul - 13:45:36 10° SW 13:47:17 12° SSW 13:48:54 10° S daylight
